This is the latest recevied weather packets stored in our database for station/object DL3NDS-WX. If no packets are shown the sender has not sent any weather packets the latest 10 day(s).
| Time | Temp. | Humidity | Pressure | Rain* | Wind** | Luminosity | Snow |
|---|---|---|---|---|---|---|---|
| 1787846772 | 26.67° C | 51% | 1017.3 hPa | 0 mm | - | 199 W/m² | - |
| 1787846739 | 26.67° C | 51% | 1017.3 hPa | 0 mm | - | 174 W/m² | - |
| 1787846626 | 26.67° C | 51% | 1017.3 hPa | 0 mm | - | 169 W/m² | - |
| 1787846565 | 26.67° C | 51% | 1017.3 hPa | 0 mm | - | 174 W/m² | - |
| 1787846518 | 26.67° C | 50% | 1017.2 hPa | 0 mm | - | 176 W/m² | - |
| 1787846485 | 26.67° C | 51% | 1017.3 hPa | 0 mm | - | 160 W/m² | - |
| 1787846434 | 26.67° C | 51% | 1017.3 hPa | 0 mm | - | 181 W/m² | - |
| 1787846320 | 26.67° C | 51% | 1017.4 hPa | 0 mm | - | 204 W/m² | - |
| 1787846259 | 26.67° C | 51% | 1017.4 hPa | 0 mm | - | 197 W/m² | - |
| 1787846197 | 26.67° C | 51% | 1017.3 hPa | 0 mm | - | 218 W/m² | - |
| 1787846136 | 26.67° C | 51% | 1017.5 hPa | 0 mm | - | 213 W/m² | - |
| 1787846075 | 26.67° C | 51% | 1017.4 hPa | 0 mm | - | 186 W/m² | - |
| 1787846014 | 26.67° C | 51% | 1017.4 hPa | 0 mm | - | 172 W/m² | - |
| 1787845952 | 26.67° C | 51% | 1017.4 hPa | 0 mm | - | 195 W/m² | - |
| 1787845891 | 26.67° C | 51% | 1017.5 hPa | 0 mm | - | 213 W/m² | - |
| 1787845830 | 26.67° C | 51% | 1017.5 hPa | 0 mm | - | 197 W/m² | - |
| 1787845769 | 26.67° C | 51% | 1017.4 hPa | 0 mm | - | 209 W/m² | - |
| 1787845707 | 26.67° C | 51% | 1017.6 hPa | 0 mm | - | 213 W/m² | - |
| 1787845646 | 26.67° C | 51% | 1017.5 hPa | 0 mm | - | 188 W/m² | - |
| 1787845585 | 27.22° C | 51% | 1017.5 hPa | 0 mm | - | 227 W/m² | - |
| 1787845523 | 27.22° C | 50% | 1017.5 hPa | 0 mm | - | 246 W/m² | - |
| 1787845464 | 27.22° C | 50% | 1017.4 hPa | 0 mm | - | 258 W/m² | - |
| 1787845401 | 27.22° C | 51% | 1017.6 hPa | 0 mm | - | 243 W/m² | - |
| 1787845340 | 27.22° C | 50% | 1017.5 hPa | 0 mm | - | 257 W/m² | - |
| 1787845280 | 27.22° C | 50% | 1017.5 hPa | 0 mm | - | 262 W/m² | - |
* Rain latest hour (hover to see other rain measurements)
** Current wind speed in m/s (hover to see current wind gust speed)